| time (UTC) | temp F | wind direction | speed MPH | gust MPH | rain 1hr in | rain 24hr in | rain mn in | humidity % | barometer mb |
| 20260901173139 | 93 | 259 | 0.0 | 0.0 | 0.00 | 0.00 | 0.00 | 72 | 1013.9 |
| 20260901171531 | 92 | 316 | 0.0 | 0.0 | 0.00 | 0.00 | 0.00 | 73 | 1013.9 |
| 20260901170029 | 92 | 286 | 0.0 | 0.0 | 0.00 | 0.00 | 0.00 | 72 | 1014.2 |
| 20260901164532 | 91 | 250 | 0.0 | 0.0 | 0.00 | 0.00 | 0.00 | 75 | 1014.2 |
| 20260901163107 | 90 | 295 | 0.0 | 0.0 | 0.00 | 0.00 | 0.00 | 74 | 1014.2 |
| 20260901161508 | 90 | 307 | 0.0 | 0.0 | 0.00 | 0.00 | 0.00 | 77 | 1014.4 |
| 20260901160002 | 90 | 232 | 0.0 | 0.0 | 0.00 | 0.00 | 0.00 | 76 | 1014.3 |
| 20260901154515 | 89 | 220 | 0.0 | 0.0 | 0.00 | 0.00 | 0.00 | 77 | 1014.2 |
| 20260901153034 | 87 | 230 | 0.0 | 0.0 | 0.00 | 0.00 | 0.00 | 79 | 1014.2 |
| 20260901151554 | 86 | 288 | 0.0 | 0.0 | 0.00 | 0.00 | 0.00 | 81 | 1014.4 |
| 20260901144548 | 84 | 288 | 0.0 | 0.0 | 0.00 | 0.00 | 0.00 | 83 | 1014.3 |
| 20260901143106 | 82 | 244 | 0.0 | 0.0 | 0.00 | 0.00 | 0.00 | 86 | 1014.4 |
| 20260901141516 | 81 | 222 | 0.0 | 0.0 | 0.00 | 0.00 | 0.00 | 88 | 1014.4 |
| 20260901140124 | 80 | 223 | 0.0 | 0.0 | 0.00 | 0.00 | 0.00 | 89 | 1014.3 |
| 20260901134511 | 77 | 222 | 0.0 | 0.0 | 0.00 | 0.00 | 0.00 | 93 | 1014.3 |
| 20260901133022 | 76 | 221 | 0.0 | 0.0 | 0.00 | 0.00 | 0.00 | 94 | 1014.4 |
| 20260901131539 | 75 | 222 | 0.0 | 0.0 | 0.00 | 0.00 | 0.00 | 94 | 1014.5 |
| 20260901130055 | 74 | 222 | 0.0 | 0.0 | 0.00 | 0.00 | 0.00 | 95 | 1014.5 |
| 20260901124540 | 73 | 221 | 0.0 | 0.0 | 0.00 | 0.00 | 0.00 | 95 | 1014.6 |
| 20260901123058 | 73 | 222 | 0.0 | 0.0 | 0.00 | 0.00 | 0.00 | 95 | 1014.6 |
| 20260901123006 | 73 | 222 | 0.0 | 0.0 | 0.00 | 0.00 | 0.00 | 95 | 1014.6 |
| 20260901121522 | 73 | 222 | 0.0 | 0.0 | 0.00 | 0.00 | 0.00 | 95 | 1014.5 |
| 20260901120059 | 72 | 222 | 0.0 | 0.0 | 0.00 | 0.01 | 0.00 | 95 | 1014.3 |
| 20260901114542 | 72 | 222 | 0.0 | 0.0 | 0.00 | 0.01 | 0.00 | 95 | 1014.2 |
| 20260901113100 | 72 | 222 | 0.0 | 0.0 | 0.00 | 0.01 | 0.00 | 95 | 1014.0 |
| 20260901113000 | 72 | 222 | 0.0 | 0.0 | 0.00 | 0.01 | 0.00 | 95 | 1014.0 |
| 20260901111520 | 72 | 222 | 0.0 | 0.0 | 0.00 | 0.01 | 0.00 | 95 | 1013.8 |
| 20260901110013 | 72 | 222 | 0.0 | 0.0 | 0.00 | 0.01 | 0.01 | 95 | 1013.6 |
| 20260901104538 | 72 | 222 | 0.0 | 0.0 | 0.00 | 0.01 | 0.01 | 95 | 1013.5 |
| 20260901103058 | 73 | 222 | 0.0 | 0.0 | 0.00 | 0.01 | 0.01 | 95 | 1013.5 |
| 20260901101516 | 73 | 222 | 0.0 | 0.0 | 0.00 | 0.01 | 0.01 | 95 | 1013.3 |
| 20260901100020 | 73 | 222 | 0.0 | 0.0 | 0.00 | 0.01 | 0.01 | 95 | 1013.4 |
| 20260901094542 | 73 | 221 | 0.0 | 0.0 | 0.00 | 0.01 | 0.01 | 95 | 1013.4 |
| 20260901093004 | 73 | 222 | 0.0 | 0.0 | 0.00 | 0.01 | 0.01 | 95 | 1013.3 |
| 20260901091528 | 73 | 222 | 0.0 | 0.0 | 0.00 | 0.01 | 0.01 | 95 | 1013.3 |
| 20260901090101 | 73 | 222 | 0.0 | 0.0 | 0.00 | 0.01 | 0.01 | 95 | 1013.3 |
| 20260901084606 | 73 | 221 | 0.0 | 0.0 | 0.00 | 0.01 | 0.01 | 95 | 1013.2 |
| 20260901083018 | 73 | 222 | 0.0 | 0.0 | 0.00 | 0.01 | 0.01 | 95 | 1013.2 |
| 20260901081540 | 73 | 221 | 0.0 | 0.0 | 0.00 | 0.01 | 0.01 | 95 | 1013.2 |
| 20260901080115 | 73 | 222 | 0.0 | 0.0 | 0.00 | 0.01 | 0.01 | 94 | 1013.2 |
| 20260901074619 | 73 | 222 | 0.0 | 0.0 | 0.00 | 0.01 | 0.01 | 94 | 1013.3 |
| 20260901073025 | 73 | 221 | 0.0 | 0.0 | 0.00 | 0.01 | 0.01 | 94 | 1013.2 |
| 20260901071539 | 74 | 222 | 0.0 | 0.0 | 0.00 | 0.01 | 0.01 | 94 | 1013.2 |
| 20260901064556 | 74 | 222 | 0.0 | 0.0 | 0.00 | 0.01 | 0.01 | 94 | 1013.0 |
| 20260901063021 | 74 | 222 | 0.0 | 0.0 | 0.00 | 0.01 | 0.01 | 95 | 1013.0 |
| 20260901061533 | 74 | 222 | 0.0 | 0.0 | 0.00 | 0.01 | 0.01 | 94 | 1013.0 |
| 20260901060054 | 74 | 222 | 0.0 | 0.0 | 0.00 | 0.01 | 0.01 | 94 | 1013.0 |
| 20260901054556 | 74 | 222 | 0.0 | 0.0 | 0.00 | 0.01 | 0.01 | 94 | 1012.9 |
| 20260901053024 | 74 | 222 | 0.0 | 0.0 | 0.00 | 0.01 | 0.01 | 94 | 1013.0 |
| 20260901051538 | 74 | 222 | 0.0 | 0.0 | 0.00 | 0.01 | 0.01 | 94 | 1013.0 |
| 20260901050104 | 74 | 222 | 0.0 | 0.0 | 0.00 | 0.01 | 0.01 | 94 | 1013.1 |
| 20260901044604 | 74 | 222 | 0.0 | 0.0 | 0.00 | 0.01 | 0.01 | 94 | 1013.1 |
| 20260901043022 | 74 | 222 | 0.0 | 0.0 | 0.00 | 0.01 | 0.01 | 94 | 1013.2 |
| 20260901041557 | 74 | 221 | 0.0 | 0.0 | 0.00 | 0.01 | 0.01 | 94 | 1013.3 |
| 20260901040139 | 74 | 222 | 0.0 | 0.0 | 0.00 | 0.01 | 0.01 | 93 | 1013.2 |
| 20260901034512 | 75 | 222 | 0.0 | 0.0 | 0.00 | 0.01 | 0.01 | 93 | 1013.3 |
| 20260901033036 | 75 | 222 | 0.0 | 0.0 | 0.00 | 0.01 | 0.01 | 92 | 1013.4 |
| 20260901031504 | 75 | 222 | 0.0 | 0.0 | 0.00 | 0.01 | 0.01 | 92 | 1013.4 |
| 20260901030003 | 76 | 222 | 0.0 | 0.0 | 0.00 | 0.02 | 0.01 | 91 | 1013.3 |
| 20260901024528 | 76 | 222 | 0.0 | 0.0 | 0.00 | 0.02 | 0.01 | 91 | 1013.3 |
| 20260901023055 | 77 | 222 | 0.0 | 0.0 | 0.00 | 0.02 | 0.01 | 91 | 1013.3 |
| 20260901021525 | 77 | 222 | 0.0 | 0.0 | 0.00 | 0.02 | 0.01 | 91 | 1013.4 |
| 20260901020014 | 77 | 222 | 0.0 | 0.0 | 0.00 | 0.03 | 0.01 | 90 | 1013.8 |
| 20260901014534 | 78 | 222 | 0.0 | 0.0 | 0.00 | 0.03 | 0.01 | 89 | 1013.3 |
| 20260901013102 | 79 | 222 | 0.0 | 0.0 | 0.00 | 0.03 | 0.01 | 89 | 1013.1 |
| 20260901011534 | 79 | 226 | 0.0 | 0.0 | 0.00 | 0.03 | 0.01 | 89 | 1012.8 |
| 20260901010105 | 79 | 227 | 0.0 | 0.0 | 0.00 | 0.03 | 0.01 | 89 | 1012.7 |
| 20260901004540 | 79 | 229 | 0.0 | 0.0 | 0.00 | 0.03 | 0.01 | 89 | 1012.7 |
| 20260901003104 | 80 | 229 | 0.0 | 0.0 | 0.00 | 0.03 | 0.01 | 88 | 1013.1 |
| 20260901001528 | 81 | 229 | 0.0 | 0.0 | 0.00 | 0.03 | 0.01 | 88 | 1012.8 |
| 20260901000019 | 81 | 228 | 0.0 | 0.0 | 0.00 | 0.03 | 0.01 | 87 | 1012.7 |
| 20260831234543 | 82 | 229 | 0.0 | 0.0 | 0.00 | 0.03 | 0.01 | 85 | 1012.4 |
| 20260831233100 | 83 | 229 | 0.0 | 0.0 | 0.00 | 0.03 | 0.01 | 84 | 1012.0 |
| 20260831233002 | 83 | 229 | 0.0 | 0.0 | 0.00 | 0.03 | 0.01 | 84 | 1012.0 |
| 20260831231528 | 82 | 188 | 0.0 | 0.0 | 0.00 | 0.03 | 0.01 | 86 | 1011.4 |
| 20260831230053 | 82 | 246 | 0.0 | 0.0 | 0.00 | 0.04 | 0.01 | 86 | 1013.2 |
| 20260831224541 | 84 | 246 | 0.0 | 0.0 | 0.00 | 0.04 | 0.01 | 82 | 1012.7 |
| 20260831223106 | 84 | 246 | 0.0 | 0.0 | 0.00 | 0.04 | 0.01 | 82 | 1012.4 |
| 20260831221525 | 84 | 246 | 0.0 | 0.0 | 0.00 | 0.04 | 0.01 | 81 | 1012.5 |
| 20260831220018 | 85 | 246 | 0.0 | 0.0 | 0.00 | 0.04 | 0.01 | 79 | 1012.7 |
| 20260831214539 | 86 | 247 | 0.0 | 0.0 | 0.00 | 0.04 | 0.01 | 76 | 1012.4 |
| 20260831213004 | 86 | 247 | 0.0 | 0.0 | 0.00 | 0.04 | 0.01 | 76 | 1012.2 |
| 20260831211526 | 86 | 247 | 0.0 | 0.0 | 0.00 | 0.04 | 0.01 | 75 | 1012.2 |
| 20260831210052 | 87 | 258 | 0.0 | 0.0 | 0.00 | 0.04 | 0.01 | 74 | 1012.0 |
| 20260831204550 | 88 | 231 | 0.0 | 0.0 | 0.00 | 0.04 | 0.01 | 74 | 1012.0 |
| 20260831203010 | 88 | 231 | 0.0 | 0.0 | 0.00 | 0.04 | 0.01 | 75 | 1012.4 |
| 20260831201529 | 86 | 231 | 0.0 | 0.0 | 0.00 | 0.04 | 0.01 | 80 | 1012.6 |
| 20260831200103 | 86 | 231 | 0.0 | 0.0 | 0.00 | 0.06 | 0.01 | 76 | 1013.0 |
| 20260831194558 | 88 | 226 | 0.0 | 0.0 | 0.00 | 0.06 | 0.01 | 72 | 1013.0 |
| 20260831193007 | 87 | 225 | 0.0 | 0.0 | 0.00 | 0.06 | 0.01 | 74 | 1012.8 |
| 20260831191523 | 86 | 223 | 0.0 | 0.0 | 0.00 | 0.06 | 0.01 | 73 | 1012.8 |
| 20260831190055 | 87 | 223 | 0.0 | 0.0 | 0.00 | 0.07 | 0.01 | 67 | 1012.8 |
| 20260831184535 | 88 | 283 | 0.0 | 0.0 | 0.00 | 0.07 | 0.01 | 67 | 1013.1 |
| 20260831183103 | 88 | 236 | 0.0 | 0.0 | 0.00 | 0.07 | 0.01 | 68 | 1013.1 |
| 20260831181518 | 87 | 241 | 0.0 | 0.0 | 0.00 | 0.07 | 0.01 | 65 | 1013.1 |
| 20260831180046 | 87 | 244 | 0.0 | 0.0 | 0.00 | 0.07 | 0.01 | 66 | 1013.2 |
| 20260831174527 | 86 | 245 | 0.0 | 1.0 | 0.00 | 0.07 | 0.01 | 67 | 1013.2 |